Location: Carri�res
(48.9069°N, 2.1792°E)
Time: 17:43:53
(UTC+00:00)

SeaSat 1 - Pass Details

Date: 13 May 2021
Orbit: 744 x 747 km, 108.0° (Epoch: 12 June)

Event Time Altitude Azimuth Distance (km) Brightness Sun altitude
Rises 01:35:03 0° 23° (NNE) 3,203 7.4 -18.6°
Reaches altitude 10° 01:37:32 10° 13° (NNE) 2,275 6.1 -18.4°
Maximum altitude 01:41:47 30° 314° (NW) 1,328 3.9 -18.1°
Enters shadow 01:44:55 16° 262° (W) 1,894 4.2 -17.8°
